TimeCST,TemperatureF,Dew PointF,Humidity,Sea Level PressureIn,VisibilityMPH,Wind Direction,Wind SpeedMPH,Gust SpeedMPH,PrecipitationIn,Events,Conditions,WindDirDegrees,DateUTC
12:53 AM,48.9,37.9,66,30.35,10.0,NNE,9.2,-,N/A,,Clear,30,2012-11-17 06:53:00
1:53 AM,46.0,37.9,73,30.35,10.0,NE,9.2,-,N/A,,Clear,50,2012-11-17 07:53:00
2:53 AM,44.1,37.0,76,30.35,10.0,NE,6.9,-,N/A,,Clear,50,2012-11-17 08:53:00
3:53 AM,44.1,37.0,76,30.34,10.0,NE,6.9,-,N/A,,Clear,50,2012-11-17 09:53:00
4:53 AM,44.1,37.0,76,30.34,10.0,NE,8.1,-,N/A,,Clear,50,2012-11-17 10:53:00
5:53 AM,42.1,37.0,82,30.35,10.0,NE,8.1,-,N/A,,Clear,50,2012-11-17 11:53:00
6:53 AM,42.1,36.0,79,30.37,10.0,NE,5.8,-,N/A,,Clear,50,2012-11-17 12:53:00
7:53 AM,46.9,39.0,74,30.38,10.0,NE,8.1,-,N/A,,Clear,50,2012-11-17 13:53:00
8:53 AM,52.0,39.9,63,30.39,10.0,ENE,9.2,-,N/A,,Clear,70,2012-11-17 14:53:00
9:53 AM,57.9,41.0,53,30.41,10.0,Calm,Calm,-,N/A,,Clear,0,2012-11-17 15:53:00
10:53 AM,62.1,42.1,48,30.40,10.0,ENE,6.9,-,N/A,,Clear,70,2012-11-17 16:53:00
11:53 AM,66.0,41.0,40,30.38,10.0,Variable,6.9,-,N/A,,Clear,0,2012-11-17 17:53:00
12:53 PM,66.9,37.9,34,30.35,10.0,NNE,6.9,-,N/A,,Clear,30,2012-11-17 18:53:00
1:53 PM,69.1,36.0,30,30.32,10.0,ENE,8.1,-,N/A,,Clear,60,2012-11-17 19:53:00
2:53 PM,70.0,37.0,30,30.31,10.0,ENE,6.9,-,N/A,,Clear,60,2012-11-17 20:53:00
3:53 PM,69.1,39.0,33,30.31,10.0,NE,6.9,-,N/A,,Clear,50,2012-11-17 21:53:00
4:53 PM,64.9,41.0,42,30.31,10.0,NE,3.5,-,N/A,,Clear,50,2012-11-17 22:53:00
5:53 PM,54.0,43.0,66,30.31,10.0,Calm,Calm,-,N/A,,Clear,0,2012-11-17 23:53:00
6:53 PM,50.0,43.0,77,30.33,10.0,Calm,Calm,-,N/A,,Clear,0,2012-11-18 00:53:00
7:53 PM,48.0,43.0,83,30.33,10.0,Calm,Calm,-,N/A,,Clear,0,2012-11-18 01:53:00
8:53 PM,46.9,42.1,83,30.34,10.0,Calm,Calm,-,N/A,,Clear,0,2012-11-18 02:53:00
9:53 PM,45.0,41.0,86,30.35,10.0,ENE,3.5,-,N/A,,Clear,60,2012-11-18 03:53:00
10:53 PM,46.9,39.9,77,30.35,10.0,NE,3.5,-,N/A,,Clear,50,2012-11-18 04:53:00
11:53 PM,45.0,39.0,80,30.35,10.0,Calm,Calm,-,N/A,,Clear,0,2012-11-18 05:53:00